PSLV DEB

Satellite information

Favourite Embed

Satellite Type and Status

DEBRISIN ORBIT

Key statistics

Satellite PSLV DEB at a glance.

Uptime

8818

Days in orbit

Revolutions

≈ 14.5

Per day

Orbit

SSO

Sun Synchronous Orbit

Inclination

98.4

Latest

Satellite identification and parameters

Extended collection of information and parameters for PSLV DEB.

Object identification

Identified? True

Debris? True

Object name: PSLV DEB

International designator: 2001-049PX

Object number (NORAD): 35339

Object ID (CCSDS): 35339

Country: INDIA (IND)

Current information (Y/N): Y

RCS size: SMALL

Orbital parameters

Period: 98.991 minutes

Inclination: 98.3657 deg

SMA: 7088.538 km

Apoapsis: 811.436 km

Periapsis: 609.37 km

RAAN: 110.8712 deg

Eccentricy: 0.01425299

Argument of periapsis: 353.2837 deg

Mean anomaly: 6.6446 deg

Mean motion: 14.54681031 rev/day

Mean motion (dot): 0.00005025 rev/day2

B* drag term: 0.001035989 1/REarth

Two-line elements (TLE)

Creation date: Dec. 11, 2025, 7:14 p.m.

Reference frame: TEME

Reference center: EARTH

Epoch: Dec. 11, 2025, 2:35 p.m. UTC

TLE line 0: 0 PSLV DEB

TLE line 1: 1 35339U 01049PX 25345.60808366 .00005025 00000-0 10360-2 0 9997

TLE line 2: 2 35339 98.3657 110.8712 0142530 353.2837 6.6446 14.54681031211271

Live tracking on map

Real-time ground track for satellite PSLV DEB.

In-orbit conjunctions

A list of the most updated potential collisions computed for object PSLV DEB.

Target Orbit TCA Probability of collision Miss distance Type
CZ-6A DEB LEO 2025-12-12 02:08:17 0.0002428499 127.0 (m) DEBRIS
CZ-11 R/B SSO 2025-10-08 13:48:33 0.0002193632 345.0 (m) ROCKET BODY
DELTA 1 DEB SSO 2025-06-13 04:33:50 0.0001047376 501.0 (m) DEBRIS
SL-14 R/B LEO 2025-04-10 15:58:41 0.0001388603 384.0 (m) ROCKET BODY
CZ-6A DEB LEO 2024-11-06 00:51:57 0.0002013023 784.0 (m) DEBRIS

Associated space launch

Technology Experiment Satellite (TES) is Indian remote sensing and photo-reconnaissance satellite. The 1108 kg satellite carries a one-meter resolution panchromatic camera is an experimental satellite to demonstrate and validate, in orbit, technologies that could be used in the future satellites of Indian Space Research Organisation (ISRO). It was successfully placed in 572 km Sun-synchronous orbit on 22 October 2001 using the PSLV-C3. The PSLV-C3 also injected two more satellites: PROBA, a Belgian satellite and BIRD, a German satellite.

PSLV DEB was lifted into orbit during the mission ‘PSLV | TES’, on board a PSLV space rocket.

The launch took place on Oct. 22, 2001, 4:53 a.m. from Satish Dhawan Space Centre First Launch Pad.

For more information about the launch, click the button.

Launch to space PSLV | TES
PSLV | TES

Agency: N/A

Status: Launch Successful

Launch date: Oct. 22, 2001, 4:53 a.m. UTC

Rocket: PSLV

Launch pad: Satish Dhawan Space Centre First Launch Pad

Location: Satish Dhawan Space Centre, India

...

Latest news about this satellite

News about space launch
Proba-1’s T-plus 23 years in orbit

Proba-1’s T-plus 23 years in orbit


Newsletter sign-up

Weekly statistics, charts and insights to help you stay on top of the space industry.